1500379200.07,21845,18.69,74656.8,18.01,7.09,3.59,0,*4E
1500379201.28,21846,18.69,74662.3,18.07,7.01,3.55,0,*4F
1500379202.51,21847,18.69,74656.8,18.11,6.21,2.85,0,*46
1500379203.72,21848,18.69,74660.5,18.17,4.11,0.67,0,*70
1500379204.91,21849,18.69,74656.3,18.21,3.33,0.01,0,*43
1500379206.12,21850,18.69,74658.3,18.21,2.55,-0.49,0,*5B
1500379207.33,21851,18.69,74656.3,18.21,1.71,-1.17,0,*65
1500379208.58,21852,18.69,74658.0,18.23,1.09,-1.67,0,*6C
1500379209.81,21853,18.69,74656.8,18.23,0.75,-1.79,0,*58
1500379211.05,21854,18.69,74658.5,18.23,0.55,-1.71,0,*55
1500379212.25,21855,18.69,74658.8,18.21,0.75,-1.29,0,*59
1500379213.46,21856,18.69,74658.0,18.19,0.09,-1.71,0,*67
1500379214.72,21857,18.69,74658.3,18.19,0.25,-1.35,0,*58
1500379215.92,21858,18.69,74656.3,18.21,0.21,-1.25,0,*59
1500379217.19,21859,18.69,74656.8,18.19,-0.23,-1.47,0,*78
1500379218.42,21860,18.69,74658.5,18.19,-0.27,-1.25,0,*72
1500379219.66,21861,18.69,74658.5,18.19,-0.27,-1.25,0,*73
1500379220.85,21862,18.69,74658.0,18.17,-0.53,-1.29,0,*71
1500379222.05,21863,18.69,74654.0,18.13,-1.21,-1.79,0,*45
1500379223.26,21864,18.69,74656.8,18.09,-0.61,-1.13,0,*70
1500379224.46,21865,18.69,74658.5,18.09,-1.25,-1.51,0,*46
1500379225.68,21866,18.69,74658.5,18.09,-1.13,-1.25,0,*43
1500379226.94,21867,18.69,74658.8,18.09,-1.99,-1.99,0,*47
1500379228.17,21868,18.69,74660.0,18.05,-1.99,-1.79,0,*4A
1500379229.35,21869,18.69,74656.5,18.05,-1.55,-1.25,0,*42
1500379230.56,21870,18.69,74656.8,18.03,-1.59,-1.13,0,*45
1500379231.77,21871,18.69,74660.8,18.01,-1.33,-0.65,0,*7A
1500379232.98,21872,18.69,74658.3,17.99,-1.01,-0.33,0,*75
1500379234.23,21873,18.69,74658.5,17.97,-1.05,-0.15,0,*7A
1500379235.45,21874,18.69,74658.8,17.97,-1.63,-0.49,0,*74
1500379236.63,21875,18.69,74658.5,17.95,-1.55,-0.53,0,*79
1500379237.84,21876,18.69,74656.8,17.95,-2.19,-1.09,0,*4F
1500379239.05,21877,18.69,74660.5,17.87,-2.39,-1.13,0,*44
1500379240.26,21878,18.69,74662.5,17.87,-2.23,-0.89,0,*72
1500379241.45,21879,18.69,74660.5,17.83,-1.63,-0.19,0,*79
1500379242.66,21880,18.69,74656.8,17.83,-2.03,-0.45,0,*73
1500379243.84,21881,18.69,74658.3,17.83,-1.71,0.01,0,*69
1500379245.04,21882,18.69,74658.8,17.79,-1.59,0.21,0,*57
1500379246.28,21883,18.69,74658.5,17.79,-0.89,1.17,0,*5E
1500379247.5,21884,18.69,74656.8,17.81,-0.03,2.05,0,*6C
1500379248.73,21885,18.69,74658.5,17.77,0.01,2.17,0,*48
1500379249.95,21886,18.69,74658.5,17.75,0.21,2.39,0,*77
1500379251.18,21887,18.69,74656.8,17.77,0.37,2.65,0,*7A
1500379252.38,21888,18.69,74658.0,17.75,0.33,2.61,0,*77
1500379253.61,21889,18.69,74658.3,17.77,0.71,2.99,0,*75
1500379254.81,21890,18.69,74658.3,17.75,0.75,2.95,0,*77
1500379256.04,21891,18.69,74658.0,17.77,0.37,2.65,0,*7D
1500379257.26,21892,18.69,74658.3,17.75,0.41,2.59,0,*72
1500379258.49,21893,18.69,74658.3,17.75,0.79,2.85,0,*79
1500379259.7,21894,18.69,74658.8,17.75,1.63,3.81,0,*41
1500379260.94,21895,18.69,74658.3,17.73,1.83,4.01,0,*47
1500379262.2,21896,18.69,74658.0,17.73,1.63,3.49,0,*41
1500379263.46,21897,18.69,74656.5,17.73,1.71,3.49,0,*43
1500379264.64,21898,18.69,74658.8,17.69,1.75,3.59,0,*42
1500379265.87,21899,18.69,74660.3,17.73,2.43,4.19,0,*4D
1500379267.1,21900,18.69,74660.8,17.73,2.77,4.49,0,*4E
1500379268.29,21901,18.69,74658.8,17.69,2.99,4.57,0,*4B
1500379269.5,21902,18.69,74656.8,17.73,3.25,4.81,0,*4E
1500379270.71,21903,18.69,74658.0,17.67,3.81,5.23,0,*4D
1500379271.92,21904,18.69,74654.5,17.69,3.97,5.23,0,*43
1500379273.1,21905,18.69,74656.3,17.69,4.19,5.37,0,*46
1500379274.28,21906,18.69,74656.8,17.69,4.45,5.49,0,*45
1500379275.52,21907,18.69,74654.3,17.73,3.89,4.79,0,*4A
1500379276.75,21908,18.69,74656.0,17.73,4.45,5.05,0,*48
1500379277.99,21909,18.69,74656.0,17.73,4.45,4.93,0,*47
1500379279.21,21910,18.69,74654.3,17.73,4.07,4.23,0,*42
1500379280.47,21911,18.69,74656.8,17.73,4.67,4.67,0,*45
1500379281.7,21912,18.69,74658.8,17.73,5.27,5.23,0,*42
1500379282.89,21913,18.69,74658.3,17.75,5.63,5.45,0,*45
1500379284.1,21914,18.69,74656.0,17.75,5.15,4.93,0,*49
1500379285.33,21915,18.69,74656.8,17.77,5.07,4.67,0,*42
1500379286.51,21916,18.69,74656.8,17.79,5.23,4.89,0,*49
1500379287.73,21917,18.69,74654.3,17.79,5.89,5.49,0,*45
1500379288.98,21918,18.69,74658.0,17.81,6.39,5.85,0,*45
1500379290.22,21919,18.69,74656.5,17.83,6.35,5.85,0,*4A
1500379291.46,21920,18.69,74654.8,17.87,6.47,5.93,0,*46
1500379292.69,21921,18.69,74654.5,17.95,6.69,6.17,0,*47
1500379293.89,21922,18.69,74658.3,17.95,7.01,6.47,0,*4E
1500379295.07,21923,18.69,74656.0,17.99,7.45,6.97,0,*4E
1500379296.29,21924,18.69,74656.8,18.03,7.23,6.57,0,*49
1500379297.52,21925,18.69,74658.8,18.07,7.29,6.73,0,*40
1500379298.7,21926,18.69,74656.5,18.13,8.05,7.55,0,*42
1500379299.91,21927,18.69,74658.0,18.19,8.09,7.51,0,*41
1500379301.1,21928,18.69,74658.5,18.25,8.01,7.37,0,*49
1500379302.33,21929,18.69,74660.3,18.29,7.19,6.51,0,*43
1500379303.53,21930,18.69,74656.8,18.33,6.69,6.07,0,*45
1500379304.75,21931,18.69,74658.3,18.37,6.03,5.37,0,*4C
1500379305.93,21932,18.69,74660.3,18.43,6.21,5.63,0,*4D
1500379307.14,21933,18.69,74658.0,18.43,6.21,5.73,0,*4D
1500379308.31,21934,18.69,74658.5,18.47,7.29,7.05,0,*44
1500379309.54,21935,18.69,74658.0,18.53,8.61,8.47,0,*4A
1500379310.72,21936,18.69,74658.3,18.59,8.23,8.01,0,*47
1500379311.89,21937,18.69,74656.5,18.67,7.37,7.05,0,*4A
1500379313.1,21938,18.69,74654.8,18.73,7.23,7.01,0,*41
1500379314.33,21939,18.69,74654.8,18.75,7.59,7.47,0,*49
1500379315.51,21940,18.69,74658.3,18.81,8.01,7.97,0,*43
1500379316.74,21941,18.69,74656.8,18.91,8.87,8.97,0,*42
1500379317.95,21942,18.69,74658.3,18.97,9.35,9.47,0,*43
1500379319.18,21943,18.69,74658.0,19.03,9.15,9.35,0,*49
1500379320.39,21944,18.69,74658.5,19.13,8.69,9.03,0,*40
1500379321.58,21945,18.69,74654.5,19.19,9.71,10.17,0,*7E
1500379322.76,21946,18.69,74654.8,19.27,9.63,10.17,0,*73
1500379323.97,21947,18.69,74656.5,19.37,9.61,10.17,0,*71
1500379325.19,21948,18.69,74656.5,19.45,10.05,10.79,0,*49
1500379326.46,21949,18.69,74652.8,19.55,10.23,10.99,0,*43
1500379327.71,21950,18.69,74656.5,19.65,10.47,11.27,0,*4E
1500379328.97,21951,18.69,74656.8,19.69,9.01,9.89,0,*44
1500379330.23,21952,18.69,74654.0,19.81,8.51,9.53,0,*42
1500379331.44,21953,18.69,74654.5,19.87,9.39,10.51,0,*70
1500379332.69,21954,18.69,74654.0,19.99,9.49,10.61,0,*7C
1500379333.9,21955,18.69,74656.8,20.01,9.43,10.69,0,*74
1500379335.13,21956,18.69,74654.5,20.09,8.09,9.53,0,*41
1500379336.38,21957,18.69,74652.8,20.17,8.51,10.05,0,*79
1500379337.58,21958,18.69,74654.8,20.23,8.69,10.37,0,*7B
1500379338.8,21959,18.69,74658.3,20.31,9.43,11.13,0,*77
1500379340.04,21960,18.69,74652.8,20.39,9.19,11.17,0,*7E
1500379341.25,21961,18.69,74656.3,20.49,9.29,11.23,0,*7C
1500379342.46,21962,18.69,74656.8,20.53,9.01,11.21,0,*7C
1500379343.7,21963,18.69,74658.0,20.61,9.07,11.33,0,*79
1500379344.93,21964,18.69,74654.0,20.67,9.15,11.57,0,*79
1500379346.14,21965,18.69,74656.0,20.75,8.83,11.41,0,*72
1500379347.33,21966,18.69,74652.5,20.83,8.23,10.93,0,*7C
1500379348.59,21967,18.69,74654.8,20.89,7.77,10.65,0,*70
1500379349.82,21968,18.69,74656.3,20.95,8.13,11.17,0,*7B
1500379351.08,21969,18.69,74658.3,20.99,7.47,10.61,0,*78
1500379352.25,21970,18.69,74654.8,21.05,6.79,10.03,0,*7C
1500379353.48,21971,18.69,74658.5,21.07,7.37,10.75,0,*75
1500379354.75,21972,18.69,74658.5,21.15,6.87,10.23,0,*7C
1500379356.01,21973,18.69,74652.3,21.19,6.43,9.85,0,*4D
1500379357.22,21974,18.69,74656.0,21.21,6.43,10.03,0,*77
1500379358.44,21975,18.69,74656.0,21.25,6.21,9.85,0,*40
1500379359.69,21976,18.69,74658.3,21.27,6.39,10.17,0,*7B
1500379360.93,21977,18.69,74656.0,21.31,6.75,10.65,0,*70
1500379362.2,21978,18.69,74654.8,21.35,6.91,10.71,0,*74
1500379363.43,21979,18.69,74656.8,21.41,7.23,11.13,0,*7B
1500379364.67,21980,18.69,74652.0,21.45,6.69,10.61,0,*72
1500379365.87,21981,18.69,74656.0,21.45,6.21,10.17,0,*7E
1500379367.12,21982,18.69,74656.0,21.45,6.53,10.27,0,*7B
1500379368.3,21983,18.69,74660.0,21.49,5.23,9.07,0,*48
1500379369.52,21984,18.69,74654.8,21.49,5.67,9.53,0,*4E
1500379370.73,21985,18.69,74652.3,21.49,5.89,9.63,0,*4C
1500379371.93,21986,18.69,74658.8,21.49,5.27,9.07,0,*49
1500379373.11,21987,18.69,74656.0,21.49,5.49,9.21,0,*44
1500379374.31,21988,18.69,74656.0,21.49,5.71,9.39,0,*49
1500379375.55,21989,18.69,74656.0,21.51,5.05,8.69,0,*46
1500379376.76,21990,18.69,74656.0,21.51,4.33,7.79,0,*44
1500379378.0,21991,18.69,74652.3,21.47,3.49,6.97,0,*49
1500379379.23,21992,18.69,74656.3,21.43,3.97,7.33,0,*42
1500379380.47,21993,18.69,74658.3,21.41,3.79,7.19,0,*49
1500379381.68,21994,18.69,74656.3,21.41,3.89,7.23,0,*48
1500379382.95,21995,18.69,74656.0,21.39,3.23,6.39,0,*4C
1500379384.21,21996,18.69,74656.0,21.35,3.45,6.51,0,*4D
1500379385.48,21997,18.69,74654.0,21.31,3.15,6.17,0,*4F
1500379386.71,21998,18.69,74658.3,21.29,3.49,6.39,0,*4C
1500379387.92,21999,18.69,74658.5,21.25,3.29,6.13,0,*4F
1500379389.18,22000,18.69,74652.3,21.23,3.75,6.43,0,*4F
1500379390.37,22001,18.69,74654.3,21.17,3.49,6.11,0,*41
1500379391.57,22002,18.69,74656.5,21.17,2.85,5.33,0,*40
1500379392.8,22003,18.69,74656.3,21.13,3.03,5.55,0,*4A
1500379394.03,22004,18.69,74656.0,21.11,3.37,5.71,0,*4E
1500379395.25,22005,18.69,74656.8,21.07,3.19,5.45,0,*43
1500379396.48,22006,18.69,74658.0,21.03,2.91,5.05,0,*41
1500379397.67,22007,18.69,74658.3,21.01,3.55,5.77,0,*4E
1500379398.87,22008,18.69,74658.8,20.99,4.15,6.25,0,*46
1500379400.07,22009,18.69,74656.0,20.97,4.45,6.53,0,*4D
1500379401.26,22010,18.69,74656.8,20.97,5.29,7.23,0,*48
1500379402.43,22011,18.69,74656.0,20.97,6.79,8.61,0,*46
1500379403.69,22012,18.69,74654.8,20.99,6.87,8.55,0,*4D
1500379404.9,22013,18.69,74656.8,20.99,6.83,8.45,0,*49
1500379406.1,22014,18.69,74656.0,21.01,7.23,8.65,0,*47
1500379407.29,22015,18.69,74656.0,21.01,7.01,8.33,0,*45
1500379408.55,22016,18.69,74654.3,21.03,7.15,8.37,0,*45
1500379409.78,22017,18.69,74658.3,21.03,6.35,7.45,0,*4D
1500379410.98,22018,18.69,74656.0,21.05,5.55,6.53,0,*47
1500379412.21,22019,18.69,74656.5,21.05,6.13,7.11,0,*40
1500379413.41,22020,18.69,74658.3,21.03,7.55,8.61,0,*47
1500379414.63,22021,18.69,74652.5,21.05,7.11,7.95,0,*44
1500379415.84,22022,18.69,74656.0,21.03,6.33,7.05,0,*49
1500379417.04,22023,18.69,74656.5,21.03,6.33,7.01,0,*4C
1500379418.26,22024,18.69,74652.8,21.03,7.15,8.01,0,*41
1500379419.43,22025,18.69,74656.0,21.05,7.37,8.05,0,*42
1500379420.68,22026,18.69,74656.0,21.07,7.19,7.87,0,*4A
1500379421.91,22027,18.69,74652.5,21.05,7.27,7.95,0,*47
1500379423.11,22028,18.69,74654.0,21.07,7.29,8.05,0,*42
1500379424.36,22029,18.69,74652.8,21.07,7.65,8.29,0,*45
1500379425.52,22030,18.69,74656.3,21.05,8.01,8.69,0,*46
1500379426.71,22031,18.69,74658.8,21.05,7.59,8.29,0,*41
1500379427.93,22032,18.69,74654.8,21.05,7.83,8.59,0,*42
1500379429.18,22033,18.75,74658.8,21.11,8.29,8.97,0,*4B
1500379430.4,22034,18.69,74654.8,21.11,8.29,8.87,0,*4D
1500379431.63,22035,18.69,74654.5,21.11,8.01,8.47,0,*4A
1500379432.85,22036,18.69,74656.0,21.11,7.97,8.47,0,*49
1500379434.08,22037,18.69,74654.3,21.11,6.83,7.19,0,*48
1500379435.33,22038,18.69,74654.8,21.07,6.73,7.19,0,*4F
1500379436.53,22039,18.69,74654.0,21.07,7.51,8.05,0,*4D
1500379437.73,22040,18.69,74654.0,21.07,7.97,8.45,0,*4D
1500379438.98,22041,18.69,74658.8,21.07,7.27,7.95,0,*45
1500379440.21,22042,18.69,74654.0,21.07,7.95,8.45,0,*4D
1500379441.44,22043,18.69,74658.5,21.07,6.69,6.97,0,*4F
1500379442.63,22044,18.69,74652.8,21.07,7.05,7.41,0,*49
1500379443.87,22045,18.69,74654.0,21.07,7.29,7.73,0,*47
1500379445.12,22046,18.69,74658.0,21.07,7.27,7.65,0,*4D
1500379446.3,22047,18.69,74652.3,21.05,6.69,7.01,0,*47
1500379447.51,22048,18.69,74658.5,21.05,6.53,6.69,0,*4E
1500379448.74,22049,18.69,74652.3,21.03,5.95,6.13,0,*4D
1500379449.97,22050,18.69,74652.5,20.99,5.67,5.93,0,*41
1500379451.14,22051,18.69,74652.0,20.97,5.19,5.45,0,*4C
1500379452.36,22052,18.69,74654.5,20.95,5.41,5.77,0,*41
1500379453.58,22053,18.69,74656.3,20.95,6.69,7.01,0,*4A
1500379454.83,22054,18.75,74656.0,20.95,6.43,6.69,0,*4A
1500379456.04,22055,18.69,74654.8,20.91,6.29,6.61,0,*4B
1500379457.24,22056,18.69,74656.0,20.91,6.25,6.69,0,*4C
1500379458.46,22057,18.75,74656.5,20.89,6.39,6.83,0,*4D
1500379459.69,22058,18.69,74652.5,20.85,5.89,6.25,0,*4A
1500379460.93,22059,18.69,74654.5,20.85,5.73,6.13,0,*4B
1500379462.13,22060,18.69,74654.5,20.81,5.63,6.21,0,*45
1500379463.36,22061,18.69,74652.5,20.81,5.99,6.69,0,*4D
1500379464.56,22062,18.69,74652.3,20.79,6.13,6.93,0,*4D
1500379465.8,22063,18.69,74654.3,20.77,6.21,6.91,0,*41
1500379467.0,22064,18.75,74656.3,20.77,6.11,6.79,0,*43
1500379468.2,22065,18.69,74652.5,20.77,5.41,6.21,0,*49
1500379469.41,22066,18.69,74652.0,20.75,5.51,6.33,0,*4A
1500379470.65,22067,18.75,74654.8,20.73,5.05,5.73,0,*4B
1500379471.89,22068,18.69,74654.5,20.69,5.19,5.93,0,*4C
1500379473.06,22069,18.69,74654.8,20.67,5.45,6.11,0,*43
1500379474.26,22070,18.75,74656.0,20.63,5.73,6.29,0,*41
1500379475.47,22071,18.69,74650.5,20.63,5.63,6.17,0,*4C
1500379476.72,22072,18.69,74652.3,20.59,6.17,6.53,0,*46
1500379477.98,22073,18.75,74658.3,20.59,5.93,6.35,0,*48
1500379479.19,22074,18.75,74654.3,20.55,5.67,5.99,0,*4D
1500379480.41,22075,18.69,74652.5,20.55,5.37,5.55,0,*49
1500379481.61,22076,18.69,74652.3,20.51,5.45,5.63,0,*4E
1500379482.84,22077,18.69,74654.5,20.51,6.03,6.17,0,*4E
1500379484.08,22078,18.69,74652.0,20.47,6.21,6.17,0,*46
1500379485.29,22079,18.75,74656.8,20.47,6.11,5.95,0,*4D
1500379486.51,22080,18.75,74652.8,20.43,6.29,6.03,0,*48
1500379487.77,22081,18.75,74652.0,20.43,5.01,4.67,0,*40
1500379488.96,22082,18.69,74652.3,20.37,5.33,5.07,0,*46
1500379490.17,22083,18.75,74652.8,20.33,5.37,4.93,0,*4B
1500379491.38,22084,18.69,74650.3,20.33,6.03,5.73,0,*47
1500379492.59,22085,18.69,74654.8,20.29,6.61,6.07,0,*49
1500379493.79,22086,18.69,74654.3,20.29,6.07,5.55,0,*4E
1500379495.0,22087,18.69,74650.3,20.27,6.57,5.99,0,*44
1500379496.24,22088,18.69,74652.3,20.25,6.11,5.51,0,*4F
1500379497.49,22089,18.69,74652.5,20.25,5.51,5.01,0,*4C
1500379498.73,22090,18.69,74652.0,20.21,6.03,5.27,0,*40
1500379499.94,22091,18.75,74656.0,20.17,5.07,4.37,0,*43
1500379501.14,22092,18.75,74652.0,20.13,4.81,3.89,0,*49
1500379502.34,22093,18.69,74654.3,20.11,4.85,3.97,0,*41
1500379503.57,22094,18.75,74654.5,20.09,5.49,4.67,0,*46
1500379504.75,22095,18.69,74652.0,20.03,5.37,4.37,0,*41
1500379505.99,22096,18.75,74652.8,20.01,4.93,3.81,0,*45
1500379507.22,22097,18.69,74654.5,19.95,4.93,3.79,0,*44
1500379508.45,22098,18.69,74652.8,19.93,4.93,3.85,0,*4E
1500379509.71,22099,18.75,74656.8,19.89,4.59,3.49,0,*42
1500379510.91,22100,18.75,74654.8,19.85,4.33,3.25,0,*49
1500379512.15,22101,18.69,74650.8,19.81,4.53,3.45,0,*4C
1500379513.39,22102,18.69,74652.3,19.77,4.45,3.41,0,*45
1500379514.61,22103,18.75,74658.3,19.75,4.97,4.01,0,*4A
1500379515.87,22104,18.69,74650.8,19.69,4.75,3.79,0,*44
1500379517.08,22105,18.75,74656.0,19.67,6.11,5.27,0,*46
1500379518.28,22106,18.75,74652.5,19.67,6.93,6.13,0,*4B
1500379519.51,22107,18.75,74652.8,19.63,6.39,5.37,0,*4B
1500379520.74,22108,18.75,74656.3,19.63,5.95,5.01,0,*44
1500379521.94,22109,18.69,74652.8,19.63,5.59,4.45,0,*44
1500379523.18,22110,18.69,74650.8,19.59,6.53,5.59,0,*40
1500379524.41,22111,18.75,74652.8,19.59,6.47,5.15,0,*4C
1500379525.65,22112,18.75,74654.8,19.57,6.35,4.97,0,*4F
1500379526.92,22113,18.75,74652.8,19.55,6.43,5.01,0,*43
1500379528.16,22114,18.75,74654.5,19.55,6.57,5.11,0,*40
1500379529.37,22115,18.75,74652.3,19.53,6.69,5.19,0,*42
1500379530.56,22116,18.69,74652.0,19.49,6.97,5.45,0,*42
1500379531.74,22117,18.69,74652.5,19.49,7.09,5.45,0,*45
1500379532.95,22118,18.75,74654.5,19.45,7.55,5.89,0,*4F
1500379534.14,22119,18.75,74652.8,19.45,7.09,5.19,0,*4E
1500379535.41,22120,18.75,74652.0,19.47,6.61,4.71,0,*46
1500379536.65,22121,18.69,74652.0,19.43,6.43,4.57,0,*47
1500379537.86,22122,18.75,74654.3,19.41,5.93,4.19,0,*42
1500379539.1,22123,18.75,74652.3,19.41,5.93,4.05,0,*4E
1500379540.3,22124,18.75,74652.3,19.37,6.25,4.37,0,*47
1500379541.53,22125,18.75,74654.5,19.35,6.17,4.33,0,*41
1500379542.74,22126,18.75,74654.3,19.33,5.93,4.11,0,*4B
1500379543.94,22127,18.75,74652.5,19.27,5.51,3.81,0,*4F
1500379545.16,22128,18.75,74658.3,19.27,5.77,4.05,0,*4F
1500379546.39,22129,18.69,74652.5,19.25,5.63,4.01,0,*4D
1500379547.58,22130,18.75,74654.5,19.23,5.15,3.53,0,*42
1500379548.78,22131,18.69,74654.0,19.19,5.55,3.93,0,*42
1500379549.98,22132,18.75,74652.8,19.17,5.45,3.93,0,*4E
1500379551.18,22133,18.75,74654.5,19.15,6.69,5.15,0,*48
1500379552.39,22134,18.75,74652.8,19.13,7.09,5.59,0,*46
1500379553.6,22135,18.75,74656.3,19.11,6.87,5.49,0,*43
1500379554.81,22136,18.75,74654.5,19.13,7.29,5.95,0,*46
1500379556.02,22137,18.75,74654.0,19.13,6.83,5.59,0,*46
1500379557.21,22138,18.75,74654.0,19.11,6.03,4.89,0,*4F
1500379558.39,22139,18.69,74650.3,19.07,5.33,4.27,0,*4D
1500379559.59,22140,18.75,74656.5,19.07,5.77,4.85,0,*4B
1500379560.8,22141,18.75,74654.3,19.03,5.63,4.67,0,*47
1500379562.04,22142,18.75,74656.3,19.01,5.81,5.11,0,*4A
1500379563.25,22143,18.75,74654.8,18.99,6.29,5.71,0,*4C
1500379564.48,22144,18.75,74652.3,18.99,6.75,6.17,0,*41
1500379565.71,22145,18.75,74654.3,18.99,6.57,6.03,0,*45
1500379566.91,22146,18.75,74652.0,18.97,6.21,5.67,0,*48
1500379568.15,22147,18.75,74654.8,18.97,5.89,5.55,0,*49
1500379569.41,22148,18.75,74652.5,18.95,6.47,6.13,0,*44
1500379570.59,22149,18.75,74654.8,18.93,6.33,6.07,0,*45
1500379571.82,22150,18.75,74654.8,18.93,5.85,5.51,0,*43
1500379573.0,22151,18.75,74654.8,18.93,5.63,5.41,0,*4B
1500379574.22,22152,18.75,74656.8,18.91,5.49,5.23,0,*46
1500379575.43,22153,18.75,74652.3,18.89,5.23,4.93,0,*48
1500379576.65,22154,18.75,74652.8,18.85,5.15,4.71,0,*4A
1500379577.83,22155,18.75,74654.5,18.85,5.63,5.29,0,*46
1500379579.04,22156,18.75,74654.8,18.79,5.45,5.15,0,*4D
1500379580.27,22157,18.75,74654.3,18.79,5.33,5.05,0,*4C
1500379581.51,22158,18.75,74652.5,18.75,5.95,5.73,0,*42
1500379582.76,22159,18.75,74652.5,18.75,5.73,5.51,0,*4B
1500379583.97,22160,18.75,74652.5,18.73,5.49,5.27,0,*4F
1500379585.17,22161,18.75,74654.5,18.71,5.59,5.45,0,*49
1500379586.4,22162,18.75,74652.3,18.71,5.55,5.37,0,*43
1500379587.58,22163,18.69,74650.5,18.67,6.21,6.21,0,*41
1500379588.82,22164,18.75,74654.0,18.67,6.47,6.47,0,*46
1500379590.05,22165,18.75,74658.5,18.67,6.47,6.51,0,*40
1500379591.24,22166,18.75,74652.3,18.67,6.25,6.25,0,*44
1500379592.42,22167,18.75,74654.0,18.67,6.11,6.11,0,*45
1500379593.6,22168,18.75,74652.3,18.63,5.95,5.99,0,*42
1500379594.83,22169,18.75,74650.8,18.63,6.43,6.57,0,*4A
1500379596.06,22170,18.75,74654.5,18.63,6.47,6.47,0,*47
1500379597.33,22171,18.75,74654.5,18.57,6.35,6.39,0,*4D
1500379598.59,22172,18.75,74654.3,18.57,6.35,6.53,0,*42
1500379599.8,22173,18.75,74654.8,18.57,6.21,6.29,0,*4B
1500379601.04,22174,18.75,74654.0,18.57,6.29,6.35,0,*49
1500379602.24,22175,18.75,74654.3,18.55,5.63,5.73,0,*46
1500379603.48,22176,18.75,74654.8,18.55,6.35,6.43,0,*45
1500379604.73,22177,18.75,74652.3,18.53,7.11,7.23,0,*42
1500379605.98,22178,18.75,74658.5,18.53,6.47,6.53,0,*49
1500379607.19,22179,18.75,74654.0,18.53,6.25,6.33,0,*4A
1500379608.44,22180,18.75,74658.0,18.53,6.53,6.47,0,*4E
1500379609.69,22181,18.75,74652.0,18.53,7.73,7.83,0,*45
1500379610.89,22182,18.75,74654.8,18.53,7.37,7.45,0,*4C
1500379612.14,22183,18.75,74658.0,18.53,6.65,6.69,0,*44
1500379613.34,22184,18.75,74652.0,18.51,6.87,7.01,0,*42
1500379614.57,22185,18.75,74658.3,18.51,6.39,6.51,0,*42
1500379615.77,22186,18.75,74654.3,18.49,6.93,7.09,0,*44
1500379617.01,22187,18.75,74656.8,18.49,7.19,7.29,0,*44
1500379618.21,22188,18.75,74656.5,18.49,6.93,7.05,0,*46
1500379619.46,22189,18.75,74654.8,18.49,7.27,7.47,0,*4F
1500379620.69,22190,18.75,74652.0,18.51,7.11,7.23,0,*49
1500379621.95,22191,18.75,74656.3,18.49,7.27,7.65,0,*46
1500379623.2,22192,18.75,74654.3,18.49,7.19,7.47,0,*48
1500379624.38,22193,18.75,74658.0,18.51,7.01,7.29,0,*41
1500379625.57,22194,18.75,74652.8,18.51,7.33,7.65,0,*4F
1500379626.75,22195,18.75,74652.3,18.51,7.41,7.79,0,*46
1500379627.94,22196,18.75,74656.8,18.51,7.51,7.79,0,*44
1500379629.16,22197,18.75,74658.0,18.51,7.61,7.91,0,*40
1500379630.39,22198,18.75,74658.3,18.53,8.15,8.47,0,*45
1500379631.6,22199,18.75,74656.3,18.51,8.13,8.45,0,*42
1500379632.83,22200,18.75,74656.8,18.53,6.79,6.91,0,*46
1500379634.03,22201,18.75,74656.0,18.51,6.73,7.01,0,*47
1500379635.27,22202,18.75,74654.5,18.53,7.55,7.73,0,*46
1500379636.5,22203,18.75,74652.5,18.53,8.23,8.37,0,*46
1500379637.73,22204,18.75,74656.5,18.53,8.15,8.37,0,*44
1500379638.93,22205,18.75,74654.8,18.53,8.01,8.15,0,*40
1500379640.14,22206,18.75,74658.5,18.55,8.27,8.47,0,*46
1500379641.34,22207,18.75,74660.3,18.55,8.51,8.61,0,*42
1500379642.55,22208,18.75,74658.8,18.55,8.51,8.61,0,*4D
1500379643.72,22209,18.75,74654.5,18.55,8.61,8.79,0,*46
1500379644.98,22210,18.75,74654.8,18.57,7.77,7.83,0,*4E
1500379646.21,22211,18.75,74656.0,18.57,7.87,8.05,0,*41
1500379647.41,22212,18.75,74658.0,18.59,8.09,8.29,0,*4B
1500379648.58,22213,18.75,74658.3,18.59,8.45,8.69,0,*46
1500379649.81,22214,18.75,74652.5,18.59,8.75,8.89,0,*4C
1500379651.03,22215,18.75,74656.8,18.59,8.29,8.47,0,*46
1500379652.26,22216,18.75,74656.5,18.59,8.29,8.47,0,*45
1500379653.44,22217,18.75,74658.0,18.59,7.79,8.01,0,*4C
1500379654.62,22218,18.75,74654.8,18.63,8.23,8.45,0,*4A
1500379655.83,22219,18.75,74656.5,18.63,8.27,8.47,0,*4D
1500379657.09,22220,18.75,74658.0,18.65,8.13,8.37,0,*41
1500379658.32,22221,18.75,74660.3,18.65,8.15,8.47,0,*41
1500379659.52,22222,18.75,74656.5,18.67,8.09,8.29,0,*45
1500379660.75,22223,18.75,74656.8,18.65,8.23,8.51,0,*41
1500379661.96,22224,18.75,74654.0,18.67,8.05,8.37,0,*40
1500379663.16,22225,18.75,74656.5,18.67,7.87,8.09,0,*49
1500379664.36,22226,18.75,74656.5,18.67,7.69,7.97,0,*42
1500379665.56,22227,18.75,74654.3,18.69,7.83,8.19,0,*40
1500379666.77,22228,18.75,74658.0,18.67,7.69,8.05,0,*48
1500379667.98,22229,18.75,74652.8,18.67,7.59,7.95,0,*4C
1500379669.15,22230,18.75,74658.8,18.67,7.59,7.97,0,*46
1500379670.35,22231,18.75,74652.5,18.67,7.69,7.97,0,*44
1500379671.56,22232,18.75,74658.8,18.67,7.95,8.27,0,*40
1500379672.77,22233,18.75,74652.8,18.67,7.73,8.15,0,*48
1500379673.99,22234,18.75,74654.8,18.65,7.59,7.91,0,*46
1500379675.19,22235,18.75,74656.3,18.65,7.05,7.33,0,*46
1500379676.43,22236,18.75,74658.8,18.65,7.11,7.37,0,*44
1500379677.62,22237,18.75,74658.5,18.63,7.11,7.33,0,*47
1500379678.86,22238,18.75,74656.8,18.65,6.33,6.65,0,*4D
1500379680.06,22239,18.75,74656.3,18.63,6.43,6.75,0,*4C
1500379681.29,22240,18.75,74656.8,18.57,6.21,6.57,0,*41
1500379682.53,22241,18.75,74658.3,18.57,5.89,6.21,0,*40
1500379683.75,22242,18.75,74658.5,18.55,5.51,5.89,0,*45
1500379684.95,22243,18.75,74658.8,18.55,5.95,6.35,0,*48
1500379686.17,22244,18.75,74654.0,18.51,6.03,6.51,0,*45
1500379687.38,22245,18.75,74656.3,18.51,5.99,6.47,0,*43
1500379688.63,22246,18.75,74660.0,18.49,5.93,6.39,0,*4A
1500379689.83,22247,18.75,74658.0,18.47,6.61,7.05,0,*45
1500379691.06,22248,18.75,74660.3,18.45,6.07,6.47,0,*4F
1500379692.24,22249,18.75,74660.3,18.47,6.25,6.79,0,*41
1500379693.46,22250,18.75,74660.5,18.45,5.73,6.25,0,*42
1500379694.64,22251,18.75,74658.3,18.43,5.23,5.71,0,*42
1500379695.87,22252,18.75,74656.5,18.41,5.49,5.85,0,*44
1500379697.1,22253,18.75,74658.0,18.37,5.27,5.67,0,*40
1500379698.32,22254,18.75,74656.3,18.33,5.81,6.17,0,*4B
1500379699.57,22255,18.75,74656.3,18.35,5.55,5.89,0,*41
1500379700.79,22256,18.75,74658.3,18.33,5.51,5.81,0,*48
1500379702.0,22257,18.75,74660.3,18.29,5.71,5.89,0,*48
1500379703.22,22258,18.75,74658.8,18.27,5.77,6.03,0,*4E
1500379704.44,22259,18.75,74658.5,18.27,5.07,5.23,0,*49
1500379705.64,22260,18.75,74660.0,18.23,5.29,5.49,0,*47
1500379706.84,22261,18.75,74660.8,18.23,5.63,5.71,0,*43
1500379708.05,22262,18.75,74662.5,18.21,5.85,6.03,0,*4C
1500379709.26,22263,18.75,74656.5,18.19,5.37,5.49,0,*42
1500379710.48,22264,18.75,74656.5,18.19,5.15,5.23,0,*49
1500379711.71,22265,18.75,74656.5,18.17,5.51,5.51,0,*43
1500379712.91,22266,18.75,74658.8,18.13,5.77,5.71,0,*42
1500379714.11,22267,18.75,74660.3,18.11,5.37,5.41,0,*46
1500379715.38,22268,18.75,74658.8,18.07,5.01,4.75,0,*4D
1500379716.59,22269,18.75,74658.5,18.07,5.11,4.85,0,*42
1500379717.77,22270,18.75,74656.5,18.03,5.07,4.85,0,*49
1500379719.03,22271,18.75,74658.8,18.01,4.93,4.67,0,*4A